Regional Weather Roundup
Issued by NWS

Home | Current Version | Previous Version | Graphics & Text | Print | Product List | Glossary On
Versions: 1 2 3 4 5 6 7 8 9 10 11 12 13 14 15 16 17 18 19 20 21 22 23 24 25 26 27 28 29 30 31 32 33 34 35 36 37 38 39 40 41 42 43 44 45 46 47 48 49 50
000
ASUS43 KMKX 251120
RWRWI

WISCONSIN REGIONAL WEATHER ROUNDUP
NATIONAL WEATHER SERVICE MILWAUKEE/SULLIVAN WI
600 AM CDT THU MAY 25 2017

NOTE: "FAIR" INDICATES FEW OR NO CLOUDS BELOW 12,000 FEET WITH NO
SIGNIFICANT WEATHER AND/OR OBSTRUCTIONS TO VISIBILITY.

WIZ001-002-006>008-014>016-023>028-251200-
NORTHWEST WISCONSIN

CITY           SKY/WX    TMP DP  RH WIND       PRES   REMARKS
SUPERIOR ARPT  NOT AVBL
ASHLAND        CLOUDY    41  40  96 CALM      29.76S
HAYWARD        CLOUDY    45  43  93 CALM      29.74R
SIREN          CLEAR     42  40  96 CALM      29.73R
CUMBERLAND     CLOUDY    48  46  93 NE3       29.72S
RICE LAKE      CLOUDY    52  48  84 E3        29.73S
CHETEK         CLOUDY    52  49  88 CALM      29.72S
LADYSMITH      PTCLDY    50  47  90 CALM      29.74S
EAU CLAIRE     PTCLDY    50  49  96 NE3       29.70F
MENOMONIE      CLOUDY    48  47  97 SW3       29.72R
NEW RICHMOND     N/A     43  43 100 CALM      29.72S FOG
OSCEOLA        CLEAR     44  44 100 E3        29.75R
$$

WIZ003>005-009-010-017-018-251200-
NORTH CENTRAL WISCONSIN

CITY           SKY/WX    TMP DP  RH WIND       PRES   REMARKS
MANITOWISH WTR PTCLDY    45  45 100 CALM      29.74S
ARBOR VITAE    CLEAR     45  43  95 N3        29.73S
WOODRUFF       CLEAR     45  43  95 N3        29.73S
RHINELANDER    PTCLDY    47  45  93 NE3       29.73S
EAGLE RIVER    MOCLDY    46  45  98 N3        29.73S
LAND O LAKES   CLOUDY    47  43  88 CALM      29.76S
PHILLIPS       PTCLDY    44  44 100 CALM      29.73R
TOMAHAWK       MOCLDY    45  44  97 CALM      29.73R FOG
MEDFORD        PTCLDY    43  43  98 NE3       29.71S
MERRILL        PTCLDY    47  47 100 CALM      29.72S
$$

WIZ029-030-035-036-043>047-251200-
CENTRAL WISCONSIN

CITY           SKY/WX    TMP DP  RH WIND       PRES   REMARKS
WAUSAU         CLEAR     49  47  93 CALM      29.69S
MOSINEE        PTCLDY    48  48 100 N7        29.71S
MARSHFIELD     MOCLDY    48  46  93 N3        29.70R
STEVENS POINT  CLEAR     43  43 100 NW3       29.70R FOG
WAUPACA        CLEAR     49  48  97 N5        29.68S
WAUTOMA        PTCLDY    50  48  93 N5        29.69R
WISC RAPIDS    CLEAR     49  47  93 N5        29.71R
CAMP DOUGLAS   CLOUDY    52  51  96 N3        29.69S
$$

WIZ011>013-019>022-031-037>040-048>050-251200-
NORTHEAST WISCONSIN

CITY           SKY/WX    TMP DP  RH WIND       PRES   REMARKS
ANTIGO         MOCLDY    46  46  98 NE8       29.71S
SHAWANO        PTCLDY    51  47  88 N6        29.69S
OCONTO         CLEAR     48  46  90 N6        29.67R
STURGEON BAY   PTCLDY    51  48  89 NE9       29.66F
GREEN BAY      CLEAR     48  48 100 N7        29.66S
MANITOWOC      CLEAR     49  46  90 N8        29.64S
APPLETON       PTCLDY    48  48 100 N10       29.64F
CLINTONVILLE   CLEAR     48  46  93 N6        29.67F
OSHKOSH        CLOUDY    51  48  89 N9        29.65S
$$

WIZ032>034-041-042-053>061-251200-
SOUTHWEST WISCONSIN

CITY           SKY/WX    TMP DP  RH WIND       PRES   REMARKS
LA CROSSE      PTCLDY    46  46 100 CALM      29.70S FOG
SPARTA         CLOUDY    46  46 100 CALM      29.70F
VIROQUA        CLOUDY    51  48  90 MISG      29.68F
BOSCOBEL       CLOUDY    55  49  80 NE5       29.68S
PRAIRIE DU CHI CLOUDY    53  47  82 CALM      29.69R
PLATTEVILLE    CLOUDY    53  52  97 N10       29.67S
$$

WIZ056-057-062-063-064-067-068-251200-
SOUTH CENTRAL WISCONSIN

CITY           SKY/WX    TMP DP  RH WIND       PRES   REMARKS
REEDSBURG      CLOUDY    52  52  99 N5        29.68R
BARABOO/DELLS  CLOUDY    52  49  88 N6        29.68R
LONE ROCK      CLOUDY    55  49  80 N6        29.68R
MINERAL POINT  CLOUDY    54  52  94 N6        29.67R
MADISON        CLOUDY    52  50  93 N10       29.66R
MIDDLETON      CLOUDY    54  53  95 N9        29.67R
WATERTOWN      CLOUDY    52  52  99 N12       29.64R
MONROE         CLOUDY    52  50  93 N9        29.65R
JANESVILLE     CLOUDY    54  54 100 N7        29.64R
$$

WIZ051-052-058>065-066-070>072-251200-
SOUTHEAST WISCONSIN

CITY           SKY/WX    TMP DP  RH WIND       PRES   REMARKS
MILWAUKEE      MOCLDY    53  50  89 N16       29.61R
WAUKESHA       CLOUDY    50  48  93 N8        29.62S
MILWAUKEE/TIMM   N/A     50  46  87 N8        29.62R
RACINE         CLOUDY    50  46  86 N15G24    29.61R
KENOSHA        CLOUDY    52  49  89 N9        29.59R
FOND DU LAC    CLOUDY    53  48  83 N9        29.65R
SHEBOYGAN      CLEAR     49  49 100 N6        29.63R
WEST BEND      CLOUDY    52  50  93 N8        29.63R
JUNEAU         CLOUDY    52  49  92 N7        29.66R
$$

LSZ147-162-251200-
LAKE SUPERIOR

STATION/POSITION TIME  TEMP    WIND        PRES    WAVE
                       AIR SEA DIR/SP/G            HT/PER
                 (UTC) (F)     (DEG/KT/KT) (MB)    (FT/S)
$$

LMZ867-665-643>646-251200-
LAKE MICHIGAN

STATION/POSITION TIME  TEMP    WIND        PRES    WAVE
                       AIR SEA DIR/SP/G            HT/PER
                 (UTC) (F)     (DEG/KT/KT) (MB)    (FT/S)
$$

TC  - TEMPERATURE IN CELSIUS
VSB - VISIBILITY IN STATUTE MILES
WCI - WIND CHILL INDEX
HX  - HEAT INDEX





USA.gov is the U.S. government's official web portal to all federal, state and local government web resources and services.